• In Hungary
  • List of Countries
  • For 7 days
  • Water Temperature
  • Satellite Maps
  • Weather Map
  • News
  • Weather Widgets
  • user-avatar
    Login

    Hourly Weather Wierzbiecin

    Today, 18 November, Saturday

    Time Temperature Precipitation Wind Pressure Humidity
    00:00 +2°C° 0.1 mm 7 mps 760 mmHg 88%
    01:00 +2°C° 0 mm 7 mps 759 mmHg 88%
    02:00 +2°C° 0 mm 7 mps 759 mmHg 87%
    03:00 +2°C° 0 mm 7 mps 758 mmHg 87%
    04:00 +2°C° 0 mm 7 mps 758 mmHg 87%
    05:00 0°C° 0.1 mm 8 mps 757 mmHg 86%
    06:00 0°C° 0.1 mm 8 mps 757 mmHg 85%
    07:00 0°C° 0 mm 7 mps 756 mmHg 87%
    08:00 0°C° 0 mm 8 mps 755 mmHg 85%
    09:00 +1°C° 0 mm 8 mps 755 mmHg 83%
    10:00 +1°C° 0 mm 9 mps 754 mmHg 81%
    11:00 +1°C° 0 mm 10 mps 753 mmHg 77%
    12:00 +2°C° 0 mm 10 mps 752 mmHg 73%
    13:00 +3°C° 0 mm 11 mps 752 mmHg 69%
    14:00 +2°C° 0.3 mm 11 mps 751 mmHg 69%
    15:00 +2°C° 0.3 mm 11 mps 750 mmHg 70%
    16:00 +2°C° 0.3 mm 11 mps 749 mmHg 70%
    17:00 +2°C° 0.9 mm 10 mps 748 mmHg 73%
    18:00 +2°C° 0.9 mm 9 mps 748 mmHg 77%
    19:00 +2°C° 0.9 mm 8 mps 747 mmHg 80%
    20:00 +2°C° 0.3 mm 8 mps 747 mmHg 80%
    21:00 +3°C° 0.3 mm 7 mps 747 mmHg 79%
    22:00 +3°C° 0.3 mm 7 mps 747 mmHg 78%
    23:00 +2°C° 0.3 mm 7 mps 747 mmHg 79%

    Tomorrow, 19 November, Sunday

    Time Temperature Precipitation Wind Pressure Humidity
    00:00 +2°C° 0.3 mm 7 mps 747 mmHg 80%
    01:00 +2°C° 0.3 mm 7 mps 747 mmHg 81%
    02:00 +1°C° 0.5 mm 8 mps 746 mmHg 82%
    03:00 +1°C° 0.5 mm 8 mps 746 mmHg 83%
    04:00 +1°C° 0.5 mm 8 mps 746 mmHg 83%
    05:00 +1°C° 0.6 mm 8 mps 745 mmHg 83%
    06:00 +1°C° 0.6 mm 8 mps 745 mmHg 83%
    07:00 +2°C° 0.6 mm 8 mps 745 mmHg 83%
    08:00 +2°C° 0.4 mm 8 mps 744 mmHg 82%
    09:00 +2°C° 0.4 mm 9 mps 744 mmHg 80%
    10:00 +2°C° 0.4 mm 9 mps 744 mmHg 79%
    11:00 +2°C° 0.5 mm 9 mps 744 mmHg 78%
    12:00 +4°C° 0.5 mm 8 mps 744 mmHg 78%
    13:00 +4°C° 0.5 mm 8 mps 743 mmHg 77%
    14:00 +4°C° 0.2 mm 7 mps 743 mmHg 77%
    15:00 +3°C° 0.2 mm 7 mps 743 mmHg 76%
    16:00 +3°C° 0.2 mm 6 mps 743 mmHg 75%
    17:00 +3°C° 0.2 mm 6 mps 744 mmHg 78%
    18:00 +2°C° 0.2 mm 5 mps 744 mmHg 81%
    19:00 +3°C° 0.2 mm 4 mps 744 mmHg 84%
    20:00 +2°C° 0.2 mm 5 mps 745 mmHg 86%
    21:00 +2°C° 0.2 mm 5 mps 745 mmHg 87%
    22:00 +1°C° 0.2 mm 6 mps 746 mmHg 89%
    23:00 +2°C° 0.2 mm 7 mps 747 mmHg 87%

    Day after tomorrow, 20 November, Monday

    Time Temperature Precipitation Wind Pressure Humidity
    00:00 +2°C° 0.2 mm 7 mps 748 mmHg 85%
    01:00 +2°C° 0.2 mm 8 mps 749 mmHg 83%
    02:00 +1°C° 0.2 mm 8 mps 749 mmHg 84%
    03:00 +2°C° 0.2 mm 7 mps 750 mmHg 84%
    04:00 +2°C° 0.2 mm 7 mps 751 mmHg 85%
    05:00 +2°C° 0.1 mm 7 mps 751 mmHg 84%
    06:00 +2°C° 0.1 mm 6 mps 752 mmHg 83%
    07:00 +1°C° 0.1 mm 6 mps 753 mmHg 81%
    08:00 +2°C° 0 mm 6 mps 753 mmHg 78%
    09:00 +2°C° 0 mm 6 mps 753 mmHg 75%
    10:00 +2°C° 0 mm 6 mps 754 mmHg 71%
    11:00 +2°C° 0 mm 6 mps 754 mmHg 70%
    12:00 +2°C° 0 mm 5 mps 754 mmHg 68%
    13:00 +3°C° 0 mm 5 mps 754 mmHg 66%
    14:00 +2°C° 0 mm 5 mps 754 mmHg 70%
    15:00 +3°C° 0 mm 4 mps 754 mmHg 73%
    16:00 +2°C° 0 mm 3 mps 754 mmHg 76%
    17:00 +2°C° 0 mm 3 mps 754 mmHg 77%
    18:00 +3°C° 0 mm 2 mps 754 mmHg 79%
    19:00 +4°C° 0 mm 1 mps 754 mmHg 80%
    20:00 +3°C° 0 mm 1 mps 754 mmHg 82%
    21:00 +3°C° 0 mm 1 mps 754 mmHg 84%
    22:00 +3°C° 0 mm 1 mps 754 mmHg 86%
    23:00 +3°C° 0 mm 1 mps 754 mmHg 88%

    21 November, Tuesday

    Time Temperature Precipitation Wind Pressure Humidity
    00:00 +2°C° 0 mm 2 mps 754 mmHg 89%
    01:00 +1°C° 0 mm 2 mps 753 mmHg 91%
    02:00 +1°C° 0 mm 2 mps 753 mmHg 92%
    03:00 +1°C° 0 mm 2 mps 753 mmHg 92%
    04:00 +2°C° 0 mm 1 mps 753 mmHg 93%
    05:00 +2°C° 0 mm 1 mps 753 mmHg 93%
    06:00 +1°C° 0 mm 1 mps 753 mmHg 93%
    07:00 +1°C° 0 mm 1 mps 754 mmHg 94%
    08:00 +2°C° 0 mm 1 mps 754 mmHg 91%
    09:00 +3°C° 0 mm 1 mps 754 mmHg 88%
    10:00 +4°C° 0 mm 1 mps 755 mmHg 85%
    11:00 +4°C° 0.1 mm 1 mps 755 mmHg 83%
    12:00 +5°C° 0.1 mm 1 mps 755 mmHg 82%
    13:00 +5°C° 0.1 mm 1 mps 755 mmHg 80%
    14:00 +5°C° 0.1 mm 1 mps 755 mmHg 83%
    15:00 +3°C° 0.1 mm 2 mps 755 mmHg 87%
    16:00 +2°C° 0.1 mm 2 mps 756 mmHg 90%
    17:00 +2°C° 0 mm 2 mps 756 mmHg 90%
    18:00 +2°C° 0 mm 2 mps 756 mmHg 91%
    19:00 +1°C° 0 mm 2 mps 757 mmHg 91%
    20:00 +1°C° 0 mm 2 mps 757 mmHg 91%
    21:00 +2°C° 0 mm 1 mps 757 mmHg 92%
    22:00 +2°C° 0 mm 1 mps 757 mmHg 92%
    23:00 +2°C° 0 mm 1 mps 757 mmHg 93%

    22 November, Wednesday

    Time Temperature Precipitation Wind Pressure Humidity
    00:00 +1°C° 0 mm 2 mps 757 mmHg 93%
    01:00 +1°C° 0 mm 2 mps 757 mmHg 94%
    02:00 0°C° 0 mm 3 mps 757 mmHg 93%
    03:00 0°C° 0 mm 3 mps 756 mmHg 93%
    04:00 0°C° 0 mm 3 mps 756 mmHg 92%
    05:00 0°C° 0.3 mm 4 mps 756 mmHg 90%
    06:00 0°C° 0.3 mm 5 mps 755 mmHg 89%
    07:00 0°C° 0.3 mm 5 mps 755 mmHg 87%
    08:00 +1°C° 0.8 mm 6 mps 755 mmHg 87%
    09:00 0°C° 0.8 mm 7 mps 754 mmHg 87%
    10:00 0°C° 0.8 mm 8 mps 754 mmHg 87%
    11:00 +1°C° 0.4 mm 8 mps 753 mmHg 88%
    12:00 +1°C° 0.4 mm 8 mps 753 mmHg 89%
    13:00 +1°C° 0.4 mm 8 mps 753 mmHg 90%
    14:00 +2°C° 0.5 mm 8 mps 752 mmHg 91%
    15:00 +4°C° 0.5 mm 8 mps 752 mmHg 92%
    16:00 +3°C° 0.5 mm 9 mps 752 mmHg 93%
    17:00 +5°C° 0.1 mm 8 mps 752 mmHg 92%
    18:00 +5°C° 0.1 mm 8 mps 752 mmHg 92%
    19:00 +6°C° 0.1 mm 8 mps 752 mmHg 92%
    20:00 +6°C° 0 mm 8 mps 753 mmHg 91%
    21:00 +6°C° 0 mm 8 mps 753 mmHg 91%
    22:00 +6°C° 0 mm 8 mps 753 mmHg 90%
    23:00 +5°C° 0 mm 8 mps 754 mmHg 91%

    23 November, Thursday

    Time Temperature Precipitation Wind Pressure Humidity
    00:00 +5°C° 0 mm 7 mps 754 mmHg 92%
    01:00 +5°C° 0 mm 7 mps 754 mmHg 93%
    02:00 +4°C° 0 mm 7 mps 754 mmHg 93%
    03:00 +4°C° 0 mm 6 mps 754 mmHg 93%
    04:00 +4°C° 0 mm 6 mps 754 mmHg 94%
    05:00 +3°C° 0 mm 6 mps 754 mmHg 93%
    06:00 +3°C° 0 mm 6 mps 754 mmHg 92%
    07:00 +3°C° 0 mm 6 mps 755 mmHg 91%
    08:00 +4°C° 0 mm 6 mps 755 mmHg 87%
    09:00 +4°C° 0 mm 6 mps 755 mmHg 82%
    10:00 +5°C° 0 mm 6 mps 755 mmHg 77%
    11:00 +7°C° 0 mm 6 mps 755 mmHg 73%
    12:00 +7°C° 0 mm 6 mps 755 mmHg 69%
    13:00 +8°C° 0 mm 6 mps 755 mmHg 65%
    14:00 +8°C° 0 mm 7 mps 754 mmHg 67%
    15:00 +6°C° 0 mm 7 mps 754 mmHg 68%
    16:00 +6°C° 0 mm 7 mps 754 mmHg 70%
    17:00 +6°C° 0 mm 7 mps 754 mmHg 70%
    18:00 +6°C° 0 mm 8 mps 754 mmHg 69%
    19:00 +6°C° 0 mm 8 mps 754 mmHg 69%
    20:00 +6°C° 0 mm 8 mps 755 mmHg 71%
    21:00 +6°C° 0 mm 8 mps 755 mmHg 72%
    22:00 +6°C° 0 mm 8 mps 755 mmHg 73%
    23:00 +6°C° 0 mm 8 mps 755 mmHg 76%
    Show more